Change the Weather History Date:

Wednesday, January 9, 2013

  Actual Average Record
Temperature  
Mean Temperature 37 °F 29 °F  
Max Temperature 55 °F 42 °F 60 °F (1990)
Min Temperature 19 °F 16 °F -18 °F (1974)
Degree Days  
Heating Degree Days 28 36  
Month to date heating degree days 341 324  
Since 1 July heating degree days 2897 2871  
Cooling Degree Days 0 0  
Month to date cooling degree days 0 0  
Year to date cooling degree days 0 0  
Moisture  
Dew Point 22 °F    
Average Humidity 58    
Maximum Humidity 84    
Minimum Humidity 32    
Precipitation  
Precipitation 0.00 in 0.01 in 0.50 in (1993)
Month to date precipitation T 0.07  
Year to date precipitation T 0.07  
Sea Level Pressure  
Sea Level Pressure 30.23 in    
Wind  
Wind Speed 14 mph (SSW)    
Max Wind Speed 28 mph    
Max Gust Speed 35 mph    
Visibility 10 miles    
Events      
T = Trace of Precipitation, MM = Missing Value Source: NWS Daily Summary

Daily Weather History Graph

Daily Weather History Graph

Search for Another Location

Airport or City:

Trip Planner

Search our weather history database for the weather conditions in past years. The results will help you decide how hot, cold, wet, or windy it might be!

Date:

Astronomy

Jan. 09, 2013 Rise Set
Actual Time 7:16 AM MST 4:42 PM MST
Civil Twilight 6:46 AM MST 5:12 PM MST
Nautical Twilight 6:11 AM MST 5:46 PM MST
Astronomical Twilight 5:38 AM MST 6:20 PM MST
Moon 4:58 AM MST (1/9) 2:45 PM MST (1/9)
Length of Visible Light 10h 26m
Length of Day
9h 25m
Waning Crescent, 6% of the Moon is Illuminated
Jan 9
Waning Crescent
Jan 11
New
Jan 18
First Quarter
Jan 26
Full
Feb 3
Last Quarter

Hourly Weather History & Observations

Time (MST) Temp. Windchill Dew Point Humidity Pressure Visibility Wind Dir Wind Speed Gust Speed Precip Events Conditions
12:53 AM 25.0 °F 15.5 °F 18.0 °F 75% 30.26 in 10.0 mi West 9.2 mph - N/A   Clear
1:53 AM 30.9 °F 21.7 °F 19.0 °F 61% 30.25 in 10.0 mi WNW 11.5 mph - N/A   Clear
2:53 AM 27.0 °F 17.3 °F 18.0 °F 69% 30.26 in 10.0 mi West 10.4 mph - N/A   Clear
3:53 AM 26.1 °F 20.5 °F 17.1 °F 69% 30.27 in 10.0 mi West 4.6 mph - N/A   Clear
4:53 AM 19.9 °F 12.1 °F 15.1 °F 81% 30.28 in 10.0 mi NW 5.8 mph - N/A   Clear
5:53 AM 19.9 °F 13.4 °F 15.1 °F 81% 30.32 in 10.0 mi WSW 4.6 mph - N/A   Clear
6:53 AM 24.1 °F 18.2 °F 17.1 °F 75% 30.34 in 10.0 mi South 4.6 mph - N/A   Clear
8:53 AM 35.1 °F 26.4 °F 21.9 °F 59% 30.34 in 10.0 mi SW 12.7 mph - N/A   Clear
9:53 AM 37.9 °F 27.3 °F 21.9 °F 53% 30.36 in 10.0 mi SSW 21.9 mph 31.1 mph N/A   Clear
10:53 AM 42.1 °F 32.3 °F 23.0 °F 47% 30.32 in 10.0 mi SSW 24.2 mph 33.4 mph N/A   Clear
11:53 AM 46.9 °F - 25.0 °F 42% 30.26 in 10.0 mi SW 27.6 mph 33.4 mph N/A   Clear
12:53 PM 50.0 °F - 26.1 °F 39% 30.24 in 10.0 mi SSW 20.7 mph 27.6 mph N/A   Clear
1:53 PM 54.0 °F - 25.0 °F 33% 30.17 in 10.0 mi SSW 18.4 mph - N/A   Clear
2:53 PM 54.0 °F - 24.1 °F 31% 30.17 in 10.0 mi South 16.1 mph - N/A   Clear
3:53 PM 48.0 °F - 27.0 °F 44% 30.18 in 10.0 mi South 11.5 mph - N/A   Clear
4:53 PM 41.0 °F 33.5 °F 27.0 °F 57% 30.21 in 10.0 mi South 13.8 mph - N/A   Clear
5:53 PM 37.9 °F 29.6 °F 25.0 °F 60% 30.21 in 10.0 mi South 13.8 mph - N/A   Clear
6:53 PM 35.1 °F 26.4 °F 24.1 °F 64% 30.19 in 10.0 mi South 12.7 mph - N/A   Clear
7:53 PM 37.0 °F 27.4 °F 23.0 °F 57% 30.19 in 10.0 mi South 17.3 mph - N/A   Clear
8:53 PM 37.0 °F 27.0 °F 23.0 °F 57% 30.12 in 10.0 mi South 18.4 mph - N/A   Clear
9:53 PM 36.0 °F 25.6 °F 23.0 °F 59% 30.11 in 10.0 mi South 18.4 mph - N/A   Clear
10:53 PM 33.1 °F 23.0 °F 23.0 °F 66% 30.09 in 10.0 mi South 15.0 mph - N/A   Clear
11:53 PM 33.1 °F 22.2 °F 24.1 °F 70% 30.06 in 10.0 mi South 17.3 mph - N/A   Clear